(107584) = 2001 DR98

Discovered at Socorro on 2001-02-17 by LINEAR.

Orbit

Orbit type: Main Belt

Note: WebGL enabled browser required.

epoch2024-03-31.0
epoch JD2460400.5
perihelion date2024-12-21.53141
perihelion JD2460666.03141
argument of perihelion (°)339.69675
ascending node (°)226.46013
inclination (°)6.20042
eccentricity0.1528708
perihelion distance (AU)2.0969770
Tisserand w.r.t. Jupiter3.5
ΔV w.r.t. Earth (km/sec)9.3
semimajor axis (AU)2.4753922
mean anomaly (°)292.80241
mean daily motion (°/day)0.25306830
aphelion distance (AU)2.854
period (years)3.89
P-vector [x]-0.89611897
P-vector [y]-0.39082938
P-vector [z]-0.21029309
Q-vector [x]0.43685342
Q-vector [y]-0.86034890
Q-vector [z]-0.26260019
absolute magnitude15.93
phase slope0.15
uncertainty0
referenceMPEC 2024-C163
observations used904
oppositions17
arc length (days)8381
first opposition used2001
last opposition used2024
residual rms (arc-secs)0.66
perturbers coarse indicatorM-v
perturbers precise indicator003Ek
first observation date used2001-01-30.0
last observation date used2024-01-11.0
computer nameMPCLINUX
JD of orbit computation2456937.491073
perihelion JD uncertainty (days)4.0375E-05
argument of perihelion uncertainty (°)3.3708E-05
ascending node uncertainty (°)3.2217E-05
inclination uncertainty (°)4.2503E-06
eccentricity uncertainty 4.7891E-08
perihelion distance uncertainty (AU)1.1462E-07
Minimum Orbit Intersection Distances (in AU)
for orbit epoch: 2460200.5, reference: E2024-CG3
Mercury1.65987
Venus1.37936
Earth1.09363
Mars0.49352
Jupiter2.11375
Saturn6.33471
Uranus16.2445
Neptune26.9907

Observations

920 total observations over interval: 2001 01 30.31999 – 2024 01 11.290345
These data are available for download (format description).

Date (UT) J2000 RA J2000 Dec Magn Location Ref
2001 01 30.31999 10 26 24.10 -01 14 47.3 18.1   704 – Lincoln Laboratory ETS, New Mexico MPS 30832
2001 01 30.35169 10 26 22.97 -01 14 45.0 19.1   704 – Lincoln Laboratory ETS, New Mexico MPS 30832
2001 01 30.36769 10 26 22.30 -01 14 44.0 19.0   704 – Lincoln Laboratory ETS, New Mexico MPS 30832
2001 01 30.38271 10 26 21.67 -01 14 42.4 19.2   704 – Lincoln Laboratory ETS, New Mexico MPS 30832
2001 02 17.36101 10 12 31.34 -00 19 15.6 18.5   704 – Lincoln Laboratory ETS, New Mexico MPS 28101
2001 02 17.37571 10 12 30.48 -00 19 09.7 18.6   704 – Lincoln Laboratory ETS, New Mexico MPS 28101
2001 02 17.38964 10 12 29.69 -00 19 06.2 18.5   704 – Lincoln Laboratory ETS, New Mexico MPS 28101
2001 02 17.40485 10 12 28.97 -00 19 03.5 19.2   704 – Lincoln Laboratory ETS, New Mexico MPS 28101
2001 02 17.41901 10 12 28.01 -00 18 57.1 18.9   704 – Lincoln Laboratory ETS, New Mexico MPS 28101
2001 02 18.61759 10 11 23.71 -00 12 46.7 19.0   608 – Haleakala-AMOS MPS 28101
2001 02 18.62788 10 11 23.14 -00 12 43.6 19.2   608 – Haleakala-AMOS MPS 28101
2001 02 18.63924 10 11 22.52 -00 12 40.0 19.3   608 – Haleakala-AMOS MPS 28101
2001 02 22.366310 10 08 00.766 +00 08 03.86 18.75 V 645 – Apache Point-Sloan Digital Sky Survey MPS 79849
2001 02 22.369782 10 08 00.570 +00 08 05.08 19.60   645 – Apache Point-Sloan Digital Sky Survey MPS 79849
2001 03 15.15861 09 51 28.75 +02 28 25.6 18.3 R 699 – Lowell Observatory-LONEOS MPS 31710
2001 03 15.18672 09 51 27.65 +02 28 37.4   699 – Lowell Observatory-LONEOS MPS 31710
2001 03 15.21498 09 51 26.53 +02 28 49.6   699 – Lowell Observatory-LONEOS MPS 31710
2001 03 15.24318 09 51 25.47 +02 29 01.0   699 – Lowell Observatory-LONEOS MPS 31710
2001 03 18.27647 09 49 44.16 +02 49 55.3 19.5   608 – Haleakala-AMOS MPS 32350
2001 03 18.28690 09 49 43.78 +02 49 59.7 19.1   608 – Haleakala-AMOS MPS 32350
2001 03 18.29783 09 49 43.44 +02 50 04.3 19.7   608 – Haleakala-AMOS MPS 32350
2002 07 12.40161 21 32 18.46 -04 32 36.6 19.7   644 – Palomar Mountain/NEAT MPS 59790
2002 07 12.41306 21 32 18.03 -04 32 37.0 19.6   644 – Palomar Mountain/NEAT MPS 59790
2002 07 12.42852 21 32 17.44 -04 32 37.2 19.6   644 – Palomar Mountain/NEAT MPS 59790
2002 08 02.23003 21 15 58.87 -05 16 55.5 19.3 R 843 – Emerald Lane Observatory, Decatur MPS 59790
2002 08 02.25647 21 15 57.37 -05 17 01.8 19.1 R 843 – Emerald Lane Observatory, Decatur MPS 59790
2002 08 05.40915 21 13 04.09 -05 29 15.2 18.9   644 – Palomar Mountain/NEAT MPS 59790
2002 08 05.42083 21 13 03.44 -05 29 18.0 18.8   644 – Palomar Mountain/NEAT MPS 59790
2002 08 05.43130 21 13 02.85 -05 29 20.5 18.8   644 – Palomar Mountain/NEAT MPS 59790
2002 08 12.22963 21 06 48.51 -05 59 19.5 19.6   704 – Lincoln Laboratory ETS, New Mexico MPS 59790
2002 08 12.24390 21 06 47.78 -05 59 23.7 19.5   704 – Lincoln Laboratory ETS, New Mexico MPS 59790
2002 08 12.25877 21 06 46.95 -05 59 28.2 20.1   704 – Lincoln Laboratory ETS, New Mexico MPS 59790
2002 08 12.27302 21 06 46.07 -05 59 32.7 19.9   704 – Lincoln Laboratory ETS, New Mexico MPS 59790
2002 08 13.28813 21 05 51.11 -06 04 23.5 19.3   704 – Lincoln Laboratory ETS, New Mexico MPS 59790
2002 08 13.29815 21 05 50.50 -06 04 25.4 19.3   704 – Lincoln Laboratory ETS, New Mexico MPS 59790
2002 08 13.29824 21 05 50.51 -06 04 24.9 19.5   704 – Lincoln Laboratory ETS, New Mexico MPS 59790
2002 08 13.30329 21 05 50.19 -06 04 27.1 19.4   704 – Lincoln Laboratory ETS, New Mexico MPS 59790
2002 08 13.31388 21 05 49.59 -06 04 29.8 19.6   704 – Lincoln Laboratory ETS, New Mexico MPS 59790
2002 08 13.31397 21 05 49.63 -06 04 29.7 20.1   704 – Lincoln Laboratory ETS, New Mexico MPS 59790
2002 08 13.32972 21 05 48.70 -06 04 34.1 19.6   704 – Lincoln Laboratory ETS, New Mexico MPS 59790
2002 08 13.32981 21 05 48.71 -06 04 35.0 19.8   704 – Lincoln Laboratory ETS, New Mexico MPS 59790
2002 08 13.33327 21 05 48.49 -06 04 36.5 20.0   704 – Lincoln Laboratory ETS, New Mexico MPS 59790
2002 08 13.34550 21 05 47.93 -06 04 38.7 19.8   704 – Lincoln Laboratory ETS, New Mexico MPS 59790
2002 08 13.36118 21 05 46.90 -06 04 44.3 19.3   704 – Lincoln Laboratory ETS, New Mexico MPS 59790
2003 10 23.34729 03 23 47.77 +18 53 17.9 20.4   704 – Lincoln Laboratory ETS, New Mexico MPS 87902
2003 10 23.36041 03 23 47.04 +18 53 15.9 19.8   704 – Lincoln Laboratory ETS, New Mexico MPS 87902
2003 10 23.38515 03 23 45.86 +18 53 09.7 20.1   704 – Lincoln Laboratory ETS, New Mexico MPS 87902
2003 10 23.42639 03 23 43.93 +18 52 56.9 20.2 V 691 – Steward Observatory, Kitt Peak-Spacewatch MPS 87902
2003 10 23.45361 03 23 42.62 +18 52 49.2 20.3 V 691 – Steward Observatory, Kitt Peak-Spacewatch MPS 87902
2003 10 23.48146 03 23 41.26 +18 52 40.9 20.2 V 691 – Steward Observatory, Kitt Peak-Spacewatch MPS 87902
2003 10 28.28175 03 19 44.94 +18 28 50.2 20.0   704 – Lincoln Laboratory ETS, New Mexico MPS 89357
2003 10 28.29411 03 19 44.30 +18 28 47.3 20.4   704 – Lincoln Laboratory ETS, New Mexico MPS 89357
2003 10 28.30666 03 19 43.64 +18 28 44.4 20.2   704 – Lincoln Laboratory ETS, New Mexico MPS 89357
2003 11 16.17848 03 02 02.28 +16 40 46.5 20.1 V 691 – Steward Observatory, Kitt Peak-Spacewatch MPS 90931
2003 11 16.20641 03 02 00.65 +16 40 36.5 19.9 V 691 – Steward Observatory, Kitt Peak-Spacewatch MPS 90931
2003 11 16.23492 03 01 58.99 +16 40 26.8 20.0 V 691 – Steward Observatory, Kitt Peak-Spacewatch MPS 90931
2003 11 20.19537 02 58 15.80 +16 16 55.8 19.8 V 291 – LPL/Spacewatch II MPS 90931
2003 11 20.22018 02 58 14.38 +16 16 47.0 19.8 V 291 – LPL/Spacewatch II MPS 90931
2003 11 20.24419 02 58 13.00 +16 16 38.6 19.8 V 291 – LPL/Spacewatch II MPS 90931
2003 11 21.25917 02 57 17.03 +16 10 40.3 19.5 C 704 – Lincoln Laboratory ETS, New Mexico MPS 291168
2003 11 21.29756 02 57 14.87 +16 10 26.0 18.1 C 704 – Lincoln Laboratory ETS, New Mexico MPS 291168
2003 11 21.31076 02 57 14.22 +16 10 20.9 19.7 C 704 – Lincoln Laboratory ETS, New Mexico MPS 291168
2003 11 23.29299 02 55 26.95 +15 58 51.3 20.5 V 291 – LPL/Spacewatch II MPS 91755
2003 11 23.32074 02 55 25.43 +15 58 41.3 20.0 V 291 – LPL/Spacewatch II MPS 91755
2003 11 23.34471 02 55 24.11 +15 58 33.2 19.8 V 291 – LPL/Spacewatch II MPS 91755
2003 11 30.17816 02 49 40.67 +15 20 38.8 20.6 V 691 – Steward Observatory, Kitt Peak-Spacewatch MPS 92667
2003 11 30.20550 02 49 39.35 +15 20 30.2 20.4 V 691 – Steward Observatory, Kitt Peak-Spacewatch MPS 92667
2003 11 30.23245 02 49 38.04 +15 20 21.6 20.5 V 691 – Steward Observatory, Kitt Peak-Spacewatch MPS 92667
2005 03 07.26162 11 18 46.54 -05 55 50.0 18.4   704 – Lincoln Laboratory ETS, New Mexico MPS 127827
2005 03 07.27330 11 18 45.97 -05 55 44.8 18.8   704 – Lincoln Laboratory ETS, New Mexico MPS 127827
2005 03 07.28495 11 18 45.32 -05 55 40.8 18.6   704 – Lincoln Laboratory ETS, New Mexico MPS 127827
2005 03 07.29732 11 18 44.65 -05 55 35.8 19.0   704 – Lincoln Laboratory ETS, New Mexico MPS 127827
2005 03 07.30897 11 18 44.06 -05 55 30.9 18.5   704 – Lincoln Laboratory ETS, New Mexico MPS 127827
2005 03 10.21940 11 16 18.55 -05 35 21.3 17.8 R 699 – Lowell Observatory-LONEOS MPS 127827
2005 03 10.24048 11 16 17.41 -05 35 13.0   699 – Lowell Observatory-LONEOS MPS 127827
2005 03 10.26156 11 16 16.31 -05 35 03.6   699 – Lowell Observatory-LONEOS MPS 127827
2005 03 10.28263 11 16 15.23 -05 34 54.9   699 – Lowell Observatory-LONEOS MPS 127827
2005 03 13.26100 11 13 45.62 -05 12 49.9 17.6   703 – Catalina Sky Survey MPS 128955
2005 03 13.26762 11 13 45.27 -05 12 47.2 17.7   703 – Catalina Sky Survey MPS 128955
2005 03 13.27413 11 13 44.93 -05 12 44.5 18.0   703 – Catalina Sky Survey MPS 128955
2005 03 13.28069 11 13 44.57 -05 12 41.3 17.8   703 – Catalina Sky Survey MPS 128955
2005 03 13.29162 11 13 43.99 -05 12 35.7 17.6   703 – Catalina Sky Survey MPS 128955
2005 03 13.30113 11 13 43.52 -05 12 31.6 17.7   703 – Catalina Sky Survey MPS 128955
2005 03 13.31060 11 13 42.98 -05 12 27.5 17.9   703 – Catalina Sky Survey MPS 128955
2005 03 13.32012 11 13 42.47 -05 12 22.4 17.7   703 – Catalina Sky Survey MPS 128955
2005 04 01.14077 11 00 09.27 -02 38 39.7 18.3 R 699 – Lowell Observatory-LONEOS MPS 130169
2005 04 01.16510 11 00 08.43 -02 38 28.7   699 – Lowell Observatory-LONEOS MPS 130169
